MMS 2

Last updated on Sun Jun 21 2026 00:02:59 GMT+0000 (Coordinated Universal Time)

1 40483U 15011B 26171.50003471 -.00000547 00000+0 00000+0 0 9999 2 40483 72.1550 348.7610 8322367 167.4660 276.5842 0.28300138 1393
UTC large
Height (km)
Speed (km/s)
/
Latitude / Longitude
Inclination (degrees)
Orbital Period (minutes)
Azimuth
Elevation
Range (km)
Doppler Factor

Next 0 passes for location: London (51.5072 / 0.1276)

No passes found over London.
MMS 2